Location: Newark
(53.0833°N, 25.3167°E)
Time: 08:15:39
(UTC+00:00)

ISS - Visible Passes

Search period start: 01 October 2020 00:00
Search period end: 11 October 2020 00:00
Orbit: 419 x 421 km, 51.6° (Epoch: 01 October)

Date Brightness Start Highest point End Pass type
(mag) Time Alt. Az. Time Alt. Az. Time Alt. Az.
01 Oct -2.7 17:31:15 10° W 17:34:24 37° SSW 17:35:42 25° SSE visible
02 Oct -3.0 16:43:55 10° W 16:47:10 46° SSW 16:50:17 11° SE visible
02 Oct -1.3 18:21:22 10° WSW 18:23:16 15° SW 18:23:16 15° SW visible
03 Oct -1.7 17:33:42 10° W 17:36:19 21° SSW 17:37:54 15° S visible
04 Oct -2.0 16:46:12 10° W 16:49:09 28° SSW 16:52:05 10° SSE visible
05 Oct -0.8 17:37:16 10° SW 17:38:02 11° SW 17:38:48 10° SSW visible
06 Oct -1.0 16:48:53 10° WSW 16:50:56 15° SW 16:52:58 10° S visible
